Regional Weather Roundup
Issued by NWS

Home | Current Version | Previous Version | Graphics & Text | Print | Product List | Glossary On
Versions: 1 2 3 4 5 6 7 8 9 10 11 12 13 14 15 16 17 18 19 20 21 22 23 24 25 26 27 28 29 30 31 32 33 34 35 36 37 38 39 40 41 42 43 44 45 46 47 48 49 50
278
ASUS45 KSLC 291910
RWRUT

UTAH REGIONAL WEATHER ROUNDUP
NATIONAL WEATHER SERVICE SALT LAKE CITY UT
100 PM MDT SUN MAY 29 2016

UTZ001>011-023>025-292000-

NORTHERN UTAH

CITY           SKY/WX    TMP DP  RH WIND       PRES   REMARKS
BRIGHAM CITY     N/A     73  37  26 CALM      30.09F
HILL AFB       SUNNY     73  40  30 VRB6      30.10F
LOGAN          MOSUNNY   65  47  52 VRB3      30.10F
OGDEN          SUNNY     74  40  29 NW5       30.08F
PROVO AIRPORT  MOSUNNY   72  45  37 VRB6      30.08F
SALT LAKE CITY PTSUNNY   79  40  24 N8        30.05F
VERNAL         SUNNY     71  41  33 E6        30.13F
WENDOVER       SUNNY     73  37  27 SE7       30.07F
HEBER CITY     MOSUNNY   73  34  23 SW18      30.10F
WEST JORDAN    MOSUNNY   75  41  29 S12       30.08F

$$

UTZ012>022-026-027-292000-

SOUTHERN/CENTRAL UTAH

CITY           SKY/WX    TMP DP  RH WIND       PRES   REMARKS
BLANDING       SUNNY     76  27  16 SE12      30.21F
BRYCE CANYON   MOSUNNY   67  25  20 S8G25     30.23F
CEDAR CITY     SUNNY     75  33  21 VRB5      30.08F
DELTA          SUNNY     77  32  19 SW8       30.07F
HANKSVILLE     SUNNY     81  32  17 E9        30.07F
MILFORD        SUNNY     81  32  17 VRB7      30.05F
MOAB/CYNLANDS  SUNNY     78  34  20 VRB5      30.05F
PRICE          MOSUNNY   75  31  19 NW25G38   30.17S
ST GEORGE      PTCLDY    84  36  17 W3        29.97F

$$

REGIONAL REPORTS     COLORADO/ARIZONA

CITY           SKY/WX    TMP DP  RH WIND       PRES   REMARKS
CRAIG, CO      CLOUDY    70  36  28 VRB6      30.18F
GRAND JUNCTION CLOUDY    73  35  25 SW9       30.12F
RIFLE          CLOUDY    76  31  19 VRB6      30.12F
MONTROSE       CLOUDY    72  28  19 S18G26    30.18R
CORTEZ         SUNNY     75  25  15 SW9       30.14F
PAGE, AZ       SUNNY     81  31  16 N9        30.04F
GRAND CANYON   SUNNY     73  13  10 SE10G23   30.18F
KINGMAN        SUNNY     81  29  15 SW12      30.02F
FLAGSTAFF      SUNNY     68  22  17 S10G21    30.22F

$$

REGIONAL REPORTS    NEVADA/IDAHO/WYOMING

CITY           SKY/WX    TMP DP  RH WIND       PRES   REMARKS
LAS VEGAS, NV  MOSUNNY   89  27  10 N5        29.90F
ELY            PTSUNNY   65  32  29 S16G23    30.16R
ELKO           SUNNY     71  38  29 SW9       30.09F
POCATELLO, ID  MOSUNNY   73  42  32 NW8       30.09F
BURLEY         MOSUNNY   72  41  32 VRB3      30.06F
EVANSTON, WY   CLOUDY    65  34  31 W12       30.20F
ROCK SPRINGS   SUNNY     63  29  27 SW3       30.21F
KEMMERER         N/A     63  32  31 SW7       30.23F

$$




USA.gov is the U.S. government's official web portal to all federal, state and local government web resources and services.